Tracking 22454 objects as of 5-Mar-2021
HD Live streaming from Space Station
objects crossing your sky now

DELTA 1 DEB

Track DELTA 1 DEB now!
10-day predictions


NORAD ID: 21339
Int'l Code: 1975-052BH
Perigee: 1,082.6 km
Apogee: 1,668.0 km
Inclination: 99.6 °
Period: 113.1 minutes
Semi major axis: 7746 km
RCS: 0.0936 m2 (small)
Launch date: June 12, 1975
Source: United States (US)
Launch site: AIR FORCE WESTERN TEST RANGE (AFWTR)

Note: This is SATELLITE DEBRIS
aabbcc
Your satellite tracking list
Your tracking list is empty




NASA's NSSDC Master Catalog

Two Line Element Set (TLE):
1 21339U 75052BH  21063.14920042 -.00000198  00000-0 -59884-3 0  9998
2 21339  99.5734 122.6647 0377881 122.8078 298.2448 12.73388350383806
Source of the keplerian elements: AFSPC